EW9544 Weather Reports


Display with metric or nautical units.
time (UTC)temp
F
wind
direction
speed
MPH
gust
MPH
rain 1hr
in
rain 24hr
in
rain mn
in
humidity
%
barometer
mb
20260506211833 57 359 0.0 4.0 0.00 0.00 0.00 94 1005.1
20260506211333 57 273 0.0 4.0 0.00 0.00 0.00 94 1005.0
20260506210333 57 256 0.0 2.0 0.00 0.00 0.00 93 1004.9
20260506205833 57 252 0.0 1.0 0.00 0.00 0.00 94 1005.0
20260506205332 57 359 0.0 1.0 0.00 0.00 0.00 94 1004.9
20260506204832 57 265 0.0 1.0 0.00 0.00 0.00 93 1005.0
20260506204332 57 268 0.0 1.0 0.00 0.00 0.00 93 1005.1
20260506203832 56 262 0.0 0.0 0.00 0.00 0.00 93 1005.0
20260506203332 56 359 0.0 0.0 0.00 0.00 0.00 93 1005.1
20260506202830 56 359 0.0 0.0 0.00 0.00 0.00 93 1005.2
20260506202331 56 262 0.0 1.0 0.00 0.00 0.00 93 1005.3
20260506201830 56 262 0.0 1.0 0.00 0.00 0.00 93 1005.4
20260506201330 57 262 0.0 1.0 0.00 0.00 0.00 93 1005.4
20260506200831 57 260 0.0 0.0 0.00 0.00 0.00 92 1005.4
20260506200330 57 268 0.0 0.0 0.00 0.00 0.00 92 1005.5
20260506195830 57 261 0.0 0.0 0.00 0.00 0.00 92 1005.6
20260506195331 57 263 0.0 2.0 0.00 0.00 0.00 92 1005.6
20260506194329 58 251 0.0 1.0 0.00 0.00 0.00 92 1005.8
20260506193829 58 258 0.0 0.0 0.00 0.00 0.00 92 1005.9
20260506193328 58 359 0.0 1.0 0.00 0.00 0.00 92 1005.8
20260506192828 58 272 0.0 1.0 0.00 0.00 0.00 92 1005.9
20260506192328 58 273 0.0 1.0 0.00 0.00 0.00 92 1005.9
20260506191827 58 359 0.0 1.0 0.00 0.00 0.00 92 1005.8
20260506191327 58 273 0.0 1.0 0.00 0.00 0.00 92 1005.7
20260506190328 58 273 0.0 1.0 0.00 0.00 0.00 92 1005.8
20260506185828 58 359 0.0 0.0 0.00 0.00 0.00 92 1005.9
20260506185327 58 289 0.0 0.0 0.00 0.00 0.00 92 1005.9
20260506184826 58 289 0.0 0.0 0.00 0.00 0.00 92 1006.0
20260506184327 58 359 0.0 0.0 0.00 0.00 0.00 92 1006.1
20260506183826 58 289 0.0 1.0 0.00 0.00 0.00 92 1006.1
20260506183327 57 289 0.0 1.0 0.00 0.00 0.00 92 1006.2
20260506182827 57 268 0.0 1.0 0.00 0.00 0.00 92 1006.2
20260506182325 57 253 0.0 1.0 0.00 0.00 0.00 92 1006.2
20260506181827 57 305 0.0 1.0 0.00 0.00 0.00 92 1006.4
20260506181327 57 359 0.0 1.0 0.00 0.00 0.00 92 1006.4
20260506180825 57 295 0.0 2.0 0.00 0.00 0.00 92 1006.5
20260506180327 57 359 0.0 3.0 0.00 0.00 0.00 92 1006.6
20260506174824 56 256 2.0 8.0 0.00 0.00 0.00 91 1006.5
20260506174323 57 251 3.0 8.0 0.00 0.00 0.00 91 1006.3
20260506173825 57 228 3.0 8.0 0.00 0.00 0.00 91 1006.3
20260506172823 57 250 2.0 8.0 0.00 0.00 0.00 90 1006.6
20260506172324 57 262 2.0 8.0 0.00 0.00 0.00 89 1006.7
20260506171823 58 251 1.0 8.0 0.00 0.00 0.00 89 1006.8
20260506171323 58 359 0.0 5.0 0.00 0.00 0.00 89 1006.9
20260506170823 58 213 0.0 1.0 0.00 0.00 0.00 88 1006.6
20260506170322 58 247 0.0 1.0 0.00 0.00 0.00 88 1007.0
20260506165323 58 250 0.0 1.0 0.00 0.00 0.00 88 1007.1
20260506164822 59 256 0.0 1.0 0.00 0.00 0.00 88 1007.3
20260506164323 59 280 0.0 0.0 0.00 0.00 0.00 88 1007.5
20260506163822 59 274 0.0 1.0 0.00 0.00 0.00 87 1007.6
20260506162821 59 258 0.0 2.0 0.00 0.00 0.00 86 1007.8
20260506162321 59 268 0.0 2.0 0.00 0.00 0.00 86 1007.9
20260506161820 60 243 0.0 1.0 0.00 0.00 0.00 86 1007.8
20260506161321 60 230 0.0 1.0 0.00 0.00 0.00 86 1007.8
20260506160820 60 220 0.0 1.0 0.00 0.00 0.00 86 1007.6
20260506160320 60 233 0.0 2.0 0.00 0.00 0.00 86 1007.7
20260506155819 59 249 0.0 2.0 0.00 0.00 0.00 86 1007.7
20260506155319 59 262 0.0 1.0 0.00 0.00 0.00 85 1007.7
20260506154820 59 256 0.0 2.0 0.00 0.00 0.00 85 1007.7
20260506154320 60 272 0.0 8.0 0.00 0.00 0.00 85 1007.9
20260506153817 60 237 0.0 8.0 0.00 0.00 0.00 85 1007.9
20260506153317 60 258 0.0 2.0 0.00 0.00 0.00 85 1008.0
20260506152819 60 261 0.0 2.0 0.00 0.00 0.00 84 1008.0
20260506151818 61 266 0.0 4.0 0.00 0.00 0.00 83 1008.2
20260506151319 61 265 1.0 4.0 0.00 0.00 0.00 83 1008.0
20260506150818 61 260 0.0 6.0 0.00 0.00 0.00 84 1008.0
20260506150319 61 244 0.0 6.0 0.00 0.00 0.00 85 1008.1
20260506144817 60 248 2.0 7.0 0.00 0.00 0.00 85 1007.7
20260506144316 60 259 1.0 6.0 0.00 0.00 0.00 85 1007.8
20260506143815 60 229 1.0 6.0 0.00 0.00 0.00 85 1007.8
20260506143315 60 230 1.0 5.0 0.00 0.00 0.00 85 1007.7
20260506142316 60 260 1.0 6.0 0.00 0.00 0.00 85 1007.9
20260506141816 60 251 1.0 6.0 0.00 0.00 0.00 85 1008.0
20260506141316 60 249 1.0 7.0 0.00 0.00 0.00 84 1008.0
20260506140315 61 208 3.0 10.0 0.00 0.00 0.00 82 1008.1
20260506135816 62 245 4.0 11.0 0.00 0.00 0.00 82 1008.1
20260506135315 62 231 4.0 14.0 0.00 0.00 0.00 83 1007.9
20260506134815 61 281 3.0 14.0 0.00 0.00 0.00 84 1007.9
20260506134316 60 252 3.0 10.0 0.00 0.00 0.00 84 1008.3
20260506133316 60 258 3.0 10.0 0.00 0.00 0.00 84 1008.3
20260506132817 60 262 2.0 10.0 0.00 0.00 0.00 84 1008.3
20260506132315 60 253 3.0 9.0 0.00 0.00 0.00 85 1008.1
20260506131816 60 251 3.0 10.0 0.00 0.00 0.00 85 1008.0
20260506131313 60 253 3.0 10.0 0.00 0.00 0.00 85 1007.9
20260506130814 60 268 3.0 10.0 0.00 0.00 0.00 85 1007.9
20260506125313 60 235 2.0 10.0 0.00 0.00 0.00 86 1007.9
20260506124813 60 242 1.0 10.0 0.00 0.00 0.00 87 1007.9
20260506124313 59 314 1.0 4.0 0.00 0.00 0.00 87 1008.0
20260506123813 59 258 1.0 3.0 0.00 0.00 0.00 88 1008.1
20260506123313 58 260 1.0 4.0 0.00 0.00 0.00 88 1008.0
20260506122814 58 252 0.0 6.0 0.00 0.00 0.00 88 1008.2
20260506121812 59 251 0.0 1.0 0.00 0.00 0.00 88 1008.4
20260506121311 59 278 0.0 1.0 0.00 0.00 0.00 88 1008.4
20260506120312 58 240 0.0 4.0 0.00 0.00 0.00 89 1008.5
20260506115812 58 267 0.0 1.0 0.00 0.00 0.00 89 1008.6
20260506115311 58 276 0.0 1.0 0.00 0.00 0.00 88 1008.6
20260506114812 58 280 0.0 0.0 0.00 0.00 0.00 89 1008.5
20260506113309 57 273 0.0 1.0 0.00 0.00 0.00 89 1008.5
20260506112309 57 243 0.0 1.0 0.00 0.00 0.00 89 1008.3
20260506111810 57 257 0.0 1.0 0.00 0.00 0.00 89 1008.5
20260506111309 57 247 0.0 1.0 0.00 0.00 0.00 89 1008.5
20260506110809 57 259 0.0 2.0 0.00 0.00 0.00 89 1008.6
20260506110310 58 291 0.0 3.0 0.00 0.00 0.00 89 1008.6
20260506105810 58 254 0.0 3.0 0.00 0.00 0.00 89 1008.6
20260506104308 58 271 0.0 2.0 0.00 0.00 0.00 89 1008.3
20260506103807 57 260 0.0 0.0 0.00 0.00 0.00 89 1008.5
20260506103307 57 255 0.0 0.0 0.00 0.00 0.00 89 1008.4
20260506102807 57 272 0.0 0.0 0.00 0.00 0.00 90 1008.5
20260506102308 57 258 0.0 0.0 0.00 0.00 0.00 90 1008.4
20260506101308 57 251 0.0 0.0 0.00 0.00 0.00 90 1008.2
20260506100808 57 256 0.0 0.0 0.00 0.00 0.00 89 1008.3
20260506100307 57 260 0.0 0.0 0.00 0.00 0.00 90 1008.4
20260506095807 57 261 0.0 0.0 0.00 0.00 0.00 90 1008.4
20260506095306 57 262 0.0 0.0 0.00 0.00 0.00 90 1008.3
20260506094806 57 272 0.0 0.0 0.00 0.00 0.00 90 1008.3
20260506094305 57 268 0.0 0.0 0.00 0.00 0.00 90 1008.2
20260506092806 56 268 0.0 0.0 0.00 0.00 0.00 90 1008.3
20260506092306 56 268 0.0 0.0 0.00 0.00 0.00 90 1008.3
20260506091806 56 268 0.0 0.0 0.00 0.00 0.00 90 1008.3
20260506090303 56 271 0.0 0.0 0.00 0.00 0.00 90 1008.5
20260506084804 56 272 0.0 0.0 0.00 0.00 0.00 90 1008.5
20260506084303 56 272 0.0 0.0 0.00 0.00 0.00 90 1008.4
20260506083803 56 272 0.0 0.0 0.00 0.00 0.00 90 1008.5
20260506083303 56 272 0.0 0.0 0.00 0.00 0.00 90 1008.6
20260506082803 56 272 0.0 0.0 0.00 0.00 0.00 90 1008.6
20260506082305 56 272 0.0 0.0 0.00 0.00 0.00 90 1008.6
20260506081804 56 272 0.0 0.0 0.00 0.00 0.00 90 1008.6
20260506081302 56 272 0.0 0.0 0.00 0.00 0.00 89 1008.6
20260506080800 56 272 0.0 0.0 0.00 0.00 0.00 89 1008.7
20260506080301 56 272 0.0 0.0 0.00 0.00 0.00 89 1008.7
20260506072802 56 273 0.0 0.0 0.00 0.00 0.00 88 1008.7
20260506072259 56 273 0.0 0.0 0.00 0.00 0.00 88 1008.8
20260506071800 56 273 0.0 0.0 0.00 0.00 0.00 88 1008.9
20260506071258 56 273 0.0 0.0 0.00 0.00 0.00 88 1008.9
20260506070800 56 273 0.0 0.0 0.00 0.00 0.00 87 1008.9
20260506070256 56 272 0.0 0.0 0.00 0.00 0.00 88 1008.8
20260506062258 57 247 0.0 0.0 0.00 0.00 0.00 86 1008.8
20260506061756 57 276 0.0 0.0 0.00 0.00 0.00 86 1008.8
20260506061257 58 275 0.0 0.0 0.00 0.00 0.00 86 1008.8
20260506051256 58 287 0.0 1.0 0.00 0.00 0.00 86 1009.1
20260506050758 58 303 0.0 1.0 0.00 0.00 0.00 86 1009.1
20260506050258 58 273 0.0 1.0 0.00 0.00 0.00 85 1009.1
20260506044756 58 264 0.0 1.0 0.00 0.00 0.00 84 1009.3
20260506044257 58 253 0.0 1.0 0.00 0.00 0.00 84 1009.3
20260506043758 59 249 0.0 1.0 0.00 0.00 0.00 83 1009.2
20260506043257 59 258 0.0 1.0 0.00 0.00 0.00 83 1009.2
20260506042756 59 281 0.0 1.0 0.00 0.00 0.00 83 1009.2
20260506042256 59 275 0.0 1.0 0.00 0.00 0.00 82 1009.1
20260506041755 60 277 0.0 1.0 0.00 0.00 0.00 82 1009.1
20260506041255 60 285 0.0 1.0 0.00 0.00 0.00 82 1009.2
20260506040756 60 272 0.0 1.0 0.00 0.00 0.00 81 1009.1
20260506040255 60 274 0.0 1.0 0.00 0.00 0.00 81 1009.2
20260506035755 60 262 0.0 1.0 0.00 0.00 0.00 81 1009.1
20260506035256 60 270 0.0 2.0 0.00 0.00 0.00 81 1009.1
20260506034756 60 279 0.0 2.0 0.00 0.00 0.00 81 1009.1
20260506033253 60 347 0.0 1.0 0.00 0.00 0.00 81 1009.1
20260506032253 60 291 0.0 1.0 0.00 0.00 0.00 81 1009.0
20260506031254 60 276 0.0 1.0 0.00 0.00 0.00 81 1008.9
20260506030754 60 281 0.0 1.0 0.00 0.00 0.00 81 1009.0
20260506025753 60 283 0.0 1.0 0.00 0.00 0.00 80 1009.0
20260506025252 60 260 0.0 2.0 0.00 0.00 0.00 80 1009.1
20260506024751 60 252 0.0 3.0 0.00 0.00 0.00 80 1009.1
20260506024251 60 250 0.0 3.0 0.00 0.00 0.00 80 1009.1
20260506023750 60 272 0.0 1.0 0.00 0.00 0.00 80 1009.0
20260506023251 60 281 0.0 2.0 0.00 0.00 0.00 79 1009.0
20260506022751 60 279 0.0 2.0 0.00 0.00 0.00 79 1009.0
20260506022252 60 282 0.0 2.0 0.00 0.00 0.00 79 1009.0
20260506021751 61 256 0.0 4.0 0.00 0.00 0.00 78 1009.0
20260506021251 61 264 1.0 4.0 0.00 0.00 0.00 77 1008.9
20260506020750 62 258 0.0 4.0 0.00 0.00 0.00 76 1008.8
20260506015749 63 268 0.0 3.0 0.00 0.00 0.00 74 1008.7
20260506014749 64 307 0.0 6.0 0.00 0.00 0.00 74 1008.5
20260506014249 63 289 0.0 2.0 0.00 0.00 0.00 74 1008.5
20260506013749 64 302 0.0 3.0 0.00 0.00 0.00 74 1008.5
20260506012748 64 297 0.0 3.0 0.00 0.00 0.00 72 1008.4
20260506012249 65 300 0.0 3.0 0.00 0.00 0.00 72 1008.3
20260506011750 65 302 0.0 3.0 0.00 0.00 0.00 71 1008.2
20260506011250 65 347 1.0 3.0 0.00 0.00 0.00 70 1008.2
20260506010747 65 251 1.0 14.0 0.00 0.00 0.00 70 1008.2
20260506005747 65 296 2.0 11.0 0.00 0.00 0.00 71 1008.0
20260506005248 65 283 2.0 11.0 0.00 0.00 0.00 71 1007.8
20260506004746 65 279 1.0 9.0 0.00 0.00 0.00 71 1007.9
20260506004247 65 323 1.0 10.0 0.00 0.00 0.00 71 1007.8
20260506003747 65 258 0.0 10.0 0.00 0.00 0.00 72 1007.7
20260506003246 64 316 0.0 2.0 0.00 0.00 0.00 72 1007.7
20260506002747 65 221 0.0 7.0 0.00 0.00 0.00 71 1007.6
20260506002247 65 253 0.0 7.0 0.00 0.00 0.00 71 1007.7
20260506001746 65 257 0.0 3.0 0.00 0.00 0.00 71 1007.6
20260506001246 65 335 0.0 9.0 0.00 0.00 0.00 70 1007.7
20260506000247 65 308 1.0 10.0 0.00 0.00 0.00 70 1007.5
20260505235744 65 240 1.0 8.0 0.00 0.00 0.00 70 1007.5
20260505235245 65 4 1.0 8.0 0.00 0.00 0.00 71 1007.5
20260505234245 64 243 0.0 7.0 0.00 0.00 0.00 73 1007.1
20260505233244 64 253 1.0 4.0 0.00 0.00 0.00 73 1006.9
20260505232745 64 237 1.0 7.0 0.00 0.00 0.00 73 1007.0
20260505231746 65 333 0.0 7.0 0.00 0.00 0.00 72 1006.9
20260505231245 65 272 0.0 1.0 0.00 0.00 0.00 72 1006.8
20260505230744 65 348 0.0 1.0 0.00 0.00 0.00 72 1006.6
20260505230244 65 267 0.0 1.0 0.00 0.00 0.00 71 1006.6
20260505225745 65 9 0.0 2.0 0.00 0.00 0.00 72 1006.6
20260505225245 65 271 0.0 3.0 0.00 0.00 0.00 72 1006.5
20260505224745 65 291 0.0 3.0 0.00 0.00 0.00 72 1006.4
20260505224245 65 305 0.0 2.0 0.00 0.00 0.00 71 1006.3
20260505222244 65 303 1.0 9.0 0.00 0.00 0.00 72 1006.3
20260505221745 65 277 4.0 13.0 0.00 0.00 0.00 71 1006.4
20260505221244 66 249 9.0 22.0 0.00 0.00 0.00 70 1006.2
20260505220744 66 271 11.0 22.0 0.00 0.00 0.00 70 1006.1
20260505220245 66 253 10.0 21.0 0.00 0.00 0.00 69 1006.0
20260505215744 66 238 10.0 21.0 0.00 0.00 0.00 69 1006.0
20260505215244 67 259 12.0 23.0 0.00 0.00 0.00 68 1006.0
20260505214745 67 250 12.0 23.0 0.00 0.00 0.00 68 1005.9
20260505214244 67 260 12.0 23.0 0.00 0.00 0.00 68 1005.9
20260505213744 67 258 11.0 23.0 0.00 0.00 0.00 68 1005.9
20260505213244 67 249 12.0 22.0 0.00 0.00 0.00 69 1005.9
20260505212744 67 262 9.0 22.0 0.00 0.00 0.00 69 1006.0
20260505212245 66 251 3.0 18.0 0.00 0.00 0.00 71 1006.0